Wind_Speed
34 35 39 42 42 40 39 41 41 36 30 27 24 24 25 26 29 31 28 22 15 14 16 18 20 22 26 30 31 29 25 22 23 23 22 21 21 21 21 21 20 18 20 23 25 27 28 28 29 29 29 29 29 28 29 29 29 28 28 28 28 27 27 27 26 25 24 23 21 19 18 17 16 16 15 14 14 13 13 13 12 12 12 11 9 8
35 39 45 46 42 37 36 38 39 37 33 27 22 20 21 23 28 29 29 26 19 17 18 17 21 24 25 28 31 31 29 26 25 24 22 21 21 22 22 22 20 17 19 25 27 28 29 30 31 31 31 32 31 31 30 30 29 28 29 28 28 28 28 28 27 26 25 23 21 19 17 16 16 16 16 15 14 14 14 14 14 13 13 11 10 9
38 45 48 44 40 37 34 36 40 39 36 32 25 21 22 22 25 28 29 26 21 19 19 17 22 25 24 27 30 32 32 29 26 25 23 21 22 23 22 22 22 20 21 26 28 28 30 31 32 33 33 33 33 32 31 30 29 29 29 29 29 30 29 28 27 26 25 23 22 20 18 18 18 17 17 16 16 16 15 15 15 14 13 12 10 10
41 46 47 42 38 37 36 36 38 39 37 37 33 28 27 25 23 25 27 25 22 22 21 17 20 23 24 28 33 33 32 30 28 27 26 25 25 23 21 20 22 22 21 24 27 28 29 31 33 34 34 34 34 33 33 31 31 30 29 29 29 29 29 28 28 26 25 24 24 23 22 21 21 20 20 19 19 19 18 16 15 15 14 12 11 10
44 40 37 40 40 36 37 37 38 40 39 38 37 35 33 28 24 23 22 20 21 22 22 18 18 21 24 28 33 35 34 33 32 31 30 30 29 25 23 22 23 23 22 22 25 26 28 30 32 34 34 34 34 34 33 32 32 31 29 29 29 28 28 28 27 26 26 26 26 26 25 25 24 24 24 23 22 21 19 17 15 14 14 13 12 11
46 36 22 28 40 39 36 39 40 40 38 37 39 38 35 30 26 24 21 17 17 18 18 16 13 18 24 26 28 32 34 36 35 34 34 32 31 29 26 25 24 25 25 24 23 24 26 28 30 32 35 35 35 34 33 32 31 31 30 29 28 28 28 27 27 27 27 26 26 26 27 26 25 25 25 23 22 20 19 17 15 15 14 14 13 12
44 40 21 14 28 38 38 39 41 41 36 35 40 40 35 33 29 25 23 19 15 15 16 13 9 14 22 25 25 29 32 35 35 35 34 34 34 33 30 28 25 25 27 27 25 25 26 28 29 30 32 33 33 33 33 33 32 31 31 30 29 28 28 27 27 28 28 27 27 26 26 25 24 23 21 20 19 19 19 18 17 16 15 15 14 12
41 41 29 12 15 31 40 41 41 41 38 38 42 39 33 32 31 29 27 23 21 20 19 16 12 13 22 27 24 23 28 32 35 36 35 36 35 33 32 31 30 27 27 28 28 27 26 27 27 27 28 29 30 32 33 33 33 32 31 30 30 29 28 28 28 28 28 28 27 26 25 25 23 22 20 19 20 21 21 20 19 18 17 16 15 13
38 41 37 23 16 25 37 42 42 41 41 41 35 30 32 31 28 30 28 28 27 23 24 27 21 11 18 31 29 22 27 31 33 36 35 36 34 32 32 31 32 30 28 29 29 27 25 24 24 24 25 26 29 32 33 33 32 32 31 31 31 30 29 29 29 29 28 27 26 25 25 25 23 22 22 22 22 22 22 22 21 20 18 17 15 14
34 35 36 31 27 26 27 32 39 41 42 40 25 15 24 28 26 26 25 28 27 20 25 34 30 13 13 32 35 25 28 32 33 35 34 34 33 31 31 30 30 31 30 30 30 28 26 23 21 22 24 27 29 30 31 32 33 32 32 32 32 32 31 30 30 29 28 28 27 27 26 25 23 23 23 23 23 23 24 23 22 21 19 17 16 14
34 27 29 35 37 33 23 19 29 38 40 40 29 16 16 19 22 23 23 25 18 14 28 37 32 18 12 29 39 33 35 35 32 35 34 33 33 32 32 31 31 31 31 31 31 30 28 24 22 22 25 27 28 30 30 31 33 33 33 33 33 33 32 32 31 30 29 29 28 27 26 25 24 24 24 24 23 24 24 24 22 21 19 18 16 15
33 27 25 31 35 36 30 21 21 26 33 37 31 22 18 15 16 19 20 22 12 10 27 35 31 23 17 30 42 38 38 37 32 35 34 33 34 32 32 33 32 31 31 32 32 32 30 27 25 25 25 26 27 30 31 31 32 33 34 34 34 34 33 33 32 31 30 30 29 27 26 25 25 24 24 23 23 23 23 23 22 22 20 19 17 15
32 33 29 24 25 29 33 32 26 22 28 34 30 24 19 10 9 11 10 12 9 9 22 28 22 22 26 38 45 40 38 38 35 35 34 32 32 32 31 33 32 30 31 33 33 33 31 28 27 26 25 25 27 29 30 31 31 32 33 34 35 35 34 33 33 32 31 31 29 27 26 25 25 25 24 24 23 22 23 23 23 23 21 19 17 15
26 30 33 28 24 24 29 35 36 30 28 33 34 30 21 8 4 8 5 5 8 10 21 27 19 16 23 36 46 46 41 39 36 34 31 30 31 32 32 32 33 31 30 33 34 33 31 28 27 26 24 24 26 27 28 30 31 32 32 33 35 35 34 34 33 33 32 31 30 28 27 26 26 26 24 24 24 23 23 24 24 23 22 20 18 15
16 18 29 35 30 26 27 31 33 33 32 32 34 35 29 18 9 6 4 4 5 6 16 25 17 8 12 26 42 48 44 39 35 32 29 29 29 28 29 33 36 36 33 32 35 34 31 28 28 27 25 24 25 26 27 29 31 33 33 32 33 35 35 35 34 33 33 32 30 29 28 28 27 26 25 24 24 24 23 23 23 22 21 20 18 16
14 17 24 33 35 29 26 27 27 30 33 32 32 34 35 33 24 10 5 7 6 4 10 19 16 7 9 22 35 42 45 42 37 32 30 30 28 24 25 32 37 40 38 35 35 36 33 30 29 28 27 24 24 26 27 29 31 33 33 32 32 33 35 35 34 34 33 32 31 31 30 29 28 27 27 26 25 24 23 22 21 20 20 19 18 17
9 19 22 25 35 36 28 27 28 28 28 27 32 38 38 37 32 18 9 10 9 5 8 17 20 16 15 23 31 36 41 42 39 35 33 31 28 24 24 28 32 38 41 38 35 36 36 34 31 29 27 25 25 26 28 29 31 32 33 33 32 33 34 36 35 34 32 32 32 32 31 30 29 29 28 27 25 24 22 21 21 20 20 20 18 17
8 18 23 20 29 39 35 30 30 30 28 25 30 38 34 28 28 25 13 8 8 5 5 14 21 18 16 20 28 34 38 40 38 35 33 32 30 27 27 27 29 34 38 39 37 36 37 37 34 31 29 26 25 25 27 28 30 31 32 33 33 33 34 35 35 34 33 32 33 33 33 32 31 30 28 27 26 25 24 22 21 21 20 19 19 18
9 13 21 21 23 32 37 34 29 28 30 27 27 30 28 22 22 27 18 7 7 5 3 9 16 17 20 22 25 30 36 39 39 35 33 32 32 31 30 28 28 31 34 37 37 37 39 39 37 35 32 29 26 25 26 27 28 30 32 33 33 33 33 34 34 34 34 33 33 33 33 32 32 31 29 28 27 27 26 23 22 21 21 20 20 19
5 6 14 21 21 22 29 34 33 29 29 30 29 26 27 26 24 28 26 14 7 3 3 5 8 13 22 25 24 28 34 37 38 37 35 32 31 32 31 29 29 30 31 33 34 35 37 38 38 37 34 31 28 26 26 26 28 30 31 33 34 34 34 35 35 35 34 34 33 33 33 33 32 32 30 29 29 28 27 24 23 22 22 22 21 20
3 4 9 19 20 17 20 29 34 32 28 32 35 28 27 28 23 23 28 27 17 5 2 3 4 12 21 23 23 25 29 35 37 37 37 34 30 30 30 28 28 29 28 28 28 29 31 33 35 37 37 35 32 29 27 26 28 29 31 32 33 34 35 35 35 35 35 35 34 33 33 33 33 32 31 31 30 29 28 26 25 24 24 23 22 21
5 5 11 17 18 17 19 23 27 28 26 29 30 27 29 29 23 15 15 26 29 17 9 5 5 14 20 18 20 21 21 29 34 35 37 35 32 31 30 27 26 27 26 26 26 26 26 29 31 34 37 38 36 32 29 27 27 29 31 31 32 33 34 34 34 34 34 35 35 34 33 33 33 33 32 32 31 30 29 28 27 26 26 25 24 22
7 7 11 19 22 21 22 21 19 20 22 23 21 23 28 28 26 19 10 17 27 25 23 16 11 21 26 18 15 17 17 21 26 30 32 30 28 29 30 28 26 25 25 26 28 25 24 25 28 32 36 37 37 35 31 29 28 29 30 31 31 32 33 33 33 33 33 34 35 34 33 33 33 34 33 33 32 31 30 29 28 28 27 26 25 24
5 6 8 17 23 25 24 18 14 15 16 19 18 20 25 24 24 22 15 15 20 23 24 16 11 27 34 25 18 15 16 19 21 24 26 25 24 25 26 27 27 26 25 27 29 27 23 25 28 32 34 35 37 36 34 32 29 28 30 31 31 31 31 31 31 32 33 34 34 34 34 34 34 34 34 33 32 31 30 29 29 28 27 26 26 25
4 4 7 9 10 15 18 15 15 16 14 15 14 16 21 23 24 25 22 17 16 23 26 16 14 27 30 26 26 20 17 20 21 23 27 27 27 27 27 28 28 28 27 28 31 30 27 27 29 29 30 31 34 36 36 34 31 28 29 31 32 31 30 31 31 31 32 33 34 34 35 35 35 35 35 34 33 32 31 30 29 28 28 27 27 26
8 6 8 5 0 5 10 7 6 9 10 11 12 15 17 17 19 22 20 15 15 23 29 25 25 30 22 18 23 22 20 21 19 20 25 29 32 32 30 29 30 32 31 29 31 34 32 30 28 27 26 27 30 34 37 37 33 29 28 30 31 32 31 30 30 31 31 32 33 34 35 36 36 36 35 34 33 32 31 30 30 29 28 28 27 27
9 9 11 11 11 13 14 12 11 14 15 14 13 15 15 11 12 12 13 17 18 19 26 34 37 34 27 25 25 24 25 24 19 17 18 23 28 27 23 23 26 31 36 33 30 33 34 33 31 28 25 25 26 30 35 38 35 30 28 28 30 32 32 32 31 31 31 31 32 34 35 35 35 35 35 34 33 32 32 31 30 29 29 28 28 28
9 11 13 15 18 19 21 23 17 15 18 20 18 16 16 11 10 13 17 23 20 15 21 33 38 39 41 39 33 31 32 31 29 26 22 22 26 24 23 26 28 29 37 40 35 33 33 34 33 30 26 25 25 26 33 37 36 32 28 27 28 31 33 32 31 31 30 31 31 32 33 33 33 34 33 33 33 33 33 32 31 30 29 29 28 28
9 12 14 16 19 19 22 22 17 15 19 21 19 18 16 14 14 18 22 24 24 22 23 25 30 39 47 44 35 32 31 30 30 28 27 28 30 30 31 33 31 29 37 44 41 37 35 34 34 30 27 25 24 26 31 36 36 33 29 27 27 30 31 31 31 30 30 30 30 30 30 30 31 32 32 33 33 33 33 32 32 31 31 30 29 28
10 12 11 14 20 22 21 19 15 14 17 20 19 14 14 17 19 21 23 24 27 29 28 27 31 41 46 43 38 34 30 29 28 26 26 26 27 29 30 31 30 33 42 47 45 42 39 36 35 32 28 24 25 28 31 32 33 32 30 28 29 30 29 29 28 28 28 28 28 28 28 28 29 30 31 32 32 32 32 31 31 32 31 31 29 29
10 10 8 11 19 22 20 17 13 11 14 18 18 11 12 17 20 21 22 24 26 28 32 36 40 44 45 41 39 37 34 31 29 27 26 25 24 26 28 28 29 34 42 47 47 46 44 40 38 35 30 26 26 28 29 29 31 31 30 29 30 30 29 26 26 26 25 25 25 26 26 27 28 29 29 30 30 30 30 30 30 31 31 31 30 30
11 13 12 11 16 20 18 15 12 11 14 16 15 10 10 12 14 15 17 22 26 28 33 40 44 46 45 40 39 40 38 34 31 28 26 23 23 24 24 24 26 30 35 40 43 45 45 42 39 35 31 27 26 27 28 29 30 31 30 29 30 30 29 27 25 25 24 23 24 24 25 25 25 26 27 27 27 27 27 28 29 29 29 30 30 30
11 14 14 11 12 18 19 14 11 10 9 12 14 10 7 5 7 7 10 16 23 26 30 38 44 45 44 41 40 40 39 38 34 31 27 22 21 20 17 17 20 24 27 30 33 35 36 36 35 33 30 28 27 27 28 28 30 30 30 29 30 31 30 28 27 26 24 24 23 22 22 23 23 24 24 25 25 25 26 27 28 28 28 28 29 29
12 12 13 9 8 15 17 13 9 6 4 10 13 9 6 5 7 7 5 8 17 24 30 38 41 42 43 43 42 40 40 39 35 32 29 23 20 16 15 16 17 20 22 23 25 26 28 30 31 30 28 28 27 27 27 28 30 30 30 30 31 30 30 30 30 29 27 26 25 24 23 23 23 24 24 24 25 25 26 27 27 27 28 28 28 29
16 13 12 11 11 14 14 9 4 3 8 15 15 8 6 6 4 5 4 3 13 25 31 36 38 40 43 43 41 40 39 38 35 33 29 24 20 14 16 15 15 17 19 22 24 26 28 28 26 27 29 29 28 27 28 29 30 31 31 31 30 28 28 29 30 30 30 29 29 28 28 27 26 26 25 25 26 26 27 27 27 27 28 28 29 29
19 15 13 13 13 11 8 5 5 5 10 19 17 10 8 7 4 5 6 2 9 22 30 34 36 40 42 41 40 40 39 37 36 33 28 24 18 15 19 15 14 15 18 22 25 27 29 26 25 28 31 30 27 26 27 28 30 31 30 29 28 27 26 26 27 27 29 30 31 31 30 30 30 29 29 28 28 28 27 27 26 26 27 27 28 28
20 17 15 14 12 9 6 7 10 7 7 17 18 12 10 7 5 5 4 3 2 14 24 31 36 39 41 40 39 39 39 37 35 32 29 23 18 17 21 16 14 15 16 21 26 29 29 27 27 32 33 30 27 26 26 27 28 29 28 27 27 26 25 25 25 25 26 28 29 30 30 31 31 31 31 31 31 31 30 28 27 27 26 27 26 26
21 19 17 14 11 9 7 7 8 5 5 14 18 14 9 5 7 5 4 5 2 10 18 26 32 35 37 35 34 36 36 34 32 31 29 24 19 19 21 17 15 16 16 19 24 28 29 29 31 34 33 31 28 25 25 26 27 28 27 26 26 25 24 25 24 25 26 26 26 27 28 28 29 29 30 31 31 31 31 31 30 29 29 28 27 26
21 20 17 14 11 10 8 4 4 5 6 12 17 16 9 4 5 8 6 4 2 9 14 20 24 27 29 29 28 30 32 31 31 31 29 25 20 20 21 19 18 18 18 20 22 25 28 30 34 35 33 31 29 26 25 26 27 27 26 24 23 24 24 25 24 24 24 23 23 23 23 24 25 26 27 29 29 30 31 31 31 32 32 31 30 29
22 20 18 18 17 13 9 7 8 9 7 9 16 16 7 4 6 13 6 3 7 12 13 15 16 16 19 23 25 26 27 27 29 31 30 27 23 22 22 21 21 21 21 22 23 24 27 30 34 35 32 30 29 27 26 27 28 28 25 22 22 24 24 23 22 21 21 20 20 20 20 21 22 22 24 25 26 27 29 30 31 32 33 33 33 32
24 22 18 19 19 14 11 10 10 9 7 8 13 14 9 7 10 11 4 5 14 18 18 18 16 13 13 18 22 22 23 26 30 31 30 28 25 25 24 23 24 24 23 24 25 26 28 29 33 33 30 29 29 28 28 29 29 28 25 23 24 25 25 23 22 21 21 20 21 21 20 20 19 19 21 22 23 25 27 28 30 31 32 32 33 33
23 21 15 17 17 13 13 13 10 8 6 6 9 13 14 12 9 6 6 10 20 24 26 27 25 22 19 16 20 23 25 29 30 29 29 28 27 26 26 26 26 26 26 26 26 27 28 29 32 32 30 29 29 29 30 30 29 27 25 25 26 26 25 23 22 21 20 19 20 20 20 19 19 19 20 21 23 25 26 27 28 29 30 30 31 32
20 17 11 13 13 9 11 11 6 4 4 4 6 11 14 12 6 6 11 13 20 26 31 32 31 30 27 22 24 26 28 27 26 27 28 28 27 26 26 28 28 28 28 27 26 26 27 28 31 32 30 29 29 29 28 28 27 26 25 24 25 24 23 21 20 18 18 18 19 20 20 20 20 19 20 22 24 25 25 26 26 27 28 28 29 29
16 12 7 9 9 6 8 8 3 2 3 2 3 7 12 13 10 12 14 12 18 25 31 34 35 33 28 24 24 25 26 25 25 26 26 25 25 24 25 27 28 28 29 28 26 26 25 25 30 32 31 29 28 27 27 26 25 25 25 24 23 23 22 20 17 16 16 17 17 17 18 19 19 19 20 22 24 25 25 25 25 26 26 27 27 27
9 5 5 10 10 8 9 7 2 2 5 4 6 9 12 13 12 14 15 9 14 23 30 34 35 33 29 25 24 24 26 26 25 25 24 23 23 23 24 25 26 27 27 28 28 26 25 25 27 30 31 30 29 27 26 26 25 25 25 24 23 22 21 20 19 19 18 17 17 17 16 16 16 17 17 19 21 21 21 22 22 23 23 24 24 24
5 3 4 10 10 9 10 7 4 4 4 4 6 9 12 11 8 10 14 9 11 19 26 31 34 34 30 27 25 25 26 26 26 27 26 25 24 24 24 24 25 26 27 28 28 27 26 25 24 26 28 29 29 28 26 26 26 25 24 23 23 21 20 20 21 21 19 18 18 18 18 17 16 16 16 17 18 17 17 17 17 18 19 20 21 21
5 4 3 8 9 9 10 9 7 6 5 5 6 7 10 10 7 8 12 11 8 12 18 26 32 35 33 29 28 27 26 26 28 29 29 28 27 27 27 26 25 25 26 26 27 27 26 25 24 24 25 26 27 27 26 25 25 24 22 21 21 20 19 19 20 20 19 19 18 18 18 17 16 17 17 17 18 18 17 17 16 15 16 16 18 19
9 6 2 6 10 11 11 12 12 10 8 8 6 6 6 7 7 9 11 11 8 5 12 19 26 32 33 31 29 29 28 28 30 31 30 30 29 29 30 29 29 28 26 27 27 27 27 26 26 25 26 26 26 26 25 24 24 24 24 23 21 19 18 18 18 18 19 19 19 19 20 20 20 20 20 19 20 20 19 18 18 17 17 17 17 18
13 9 7 7 10 12 13 15 15 13 13 13 10 7 5 4 6 9 11 13 12 5 5 14 20 25 29 28 28 28 29 29 31 31 31 31 30 29 29 30 30 31 30 30 29 29 29 28 28 28 28 27 27 26 25 24 23 22 23 23 22 20 19 19 19 19 20 22 23 24 24 24 24 25 24 23 23 22 22 21 20 19 19 19 19 19
14 12 10 10 11 13 15 16 16 15 17 17 15 11 8 6 7 8 10 14 15 11 2 9 13 16 20 21 22 25 27 28 29 30 30 30 29 28 28 29 30 31 32 32 31 31 30 29 29 30 30 29 28 27 26 25 23 22 23 23 22 21 20 21 22 23 23 25 26 27 27 27 26 26 26 26 26 25 25 24 23 23 22 21 21 21
16 15 13 13 13 12 13 15 17 20 21 19 17 16 13 9 9 10 9 13 15 14 9 5 7 8 12 14 15 19 24 27 28 28 28 27 27 26 26 27 28 30 31 31 32 32 31 31 30 30 30 30 29 28 27 27 25 24 24 23 22 23 24 25 26 25 24 24 24 25 26 25 25 26 27 27 28 27 27 27 26 25 24 23 23 23
Wind_Direction
204 208 211 213 214 210 207 206 208 209 207 206 209 214 219 223 223 219 214 213 224 251 256 255 258 250 241 238 238 241 243 242 239 236 239 240 240 239 240 236 227 223 216 205 202 199 198 197 198 199 199 198 198 199 200 200 199 199 200 200 199 198 199 199 200 200 200 200 202 203 202 200 200 205 206 204 205 202 201 207 210 212 216 217 215 210
207 214 217 216 215 212 209 209 211 212 210 209 207 209 217 224 226 222 220 220 227 248 253 254 256 252 246 243 241 241 241 241 239 238 239 239 239 237 236 235 230 224 214 206 203 200 199 199 199 200 201 201 200 200 201 201 200 199 200 201 200 201 202 202 203 204 204 203 205 207 206 204 203 207 209 208 211 210 205 206 209 214 219 218 216 211
210 218 221 218 217 215 213 212 213 214 216 217 214 215 220 222 226 224 222 221 223 240 250 250 250 250 248 246 244 243 244 246 246 246 248 248 246 239 233 231 228 223 215 207 204 201 200 200 200 202 202 203 203 202 203 202 201 201 201 201 200 202 202 202 204 205 206 205 206 209 210 210 209 209 210 210 213 214 211 209 207 210 218 218 215 212
210 221 223 218 217 217 216 214 214 216 220 222 222 225 226 221 224 225 222 224 227 236 246 250 254 252 248 245 243 245 248 251 252 253 255 257 257 251 242 236 229 227 222 211 205 202 202 202 202 204 204 204 204 204 204 204 203 202 201 202 202 202 202 202 203 204 205 206 208 209 210 212 212 210 211 212 213 215 215 212 207 208 214 217 214 213
213 221 225 220 217 217 217 216 214 217 221 224 224 226 227 222 222 225 224 228 231 236 243 247 257 257 247 241 242 244 246 248 249 249 250 254 256 254 248 243 237 234 232 220 211 206 204 206 206 206 206 205 206 206 205 205 205 204 202 202 203 203 203 203 203 204 205 207 207 207 208 210 210 208 209 210 211 214 215 214 209 206 210 215 215 214
218 220 227 226 220 217 218 218 216 216 221 226 226 225 228 227 227 229 229 236 242 241 239 236 247 256 246 241 243 243 243 245 245 245 247 251 252 249 243 241 238 236 235 228 220 214 209 209 209 208 207 207 208 208 207 206 206 206 204 203 204 204 204 204 204 205 206 208 207 206 207 209 210 209 210 210 210 213 216 216 212 208 209 214 215 214
220 218 219 229 225 220 217 220 219 216 220 228 227 224 228 232 234 234 234 244 251 243 233 219 226 258 253 244 244 245 245 247 246 246 249 249 248 247 243 241 239 235 233 229 224 219 214 211 211 211 210 210 210 209 208 208 207 207 205 204 204 205 205 205 205 206 207 208 208 207 207 209 212 214 214 213 211 212 215 216 214 212 211 215 216 216
221 217 213 207 223 222 218 219 219 216 220 227 228 225 229 235 237 236 238 245 249 249 244 227 225 265 262 246 240 244 247 246 245 247 249 248 247 248 245 243 241 237 232 230 228 223 217 215 215 215 214 212 212 210 209 209 208 207 206 205 205 205 205 206 207 208 208 208 207 207 207 208 210 211 212 213 211 210 212 214 215 214 214 216 217 218
222 220 214 202 208 220 220 222 221 216 219 226 230 232 233 235 239 240 243 249 253 261 258 244 237 254 262 247 238 239 244 242 242 245 248 248 249 249 246 244 243 239 233 231 232 230 222 218 217 217 216 215 213 211 211 211 210 208 208 207 206 206 206 206 208 208 209 208 207 207 207 208 209 208 207 209 209 207 209 212 214 216 216 217 218 220
225 226 220 211 213 220 222 225 224 220 220 223 225 235 236 235 240 243 245 251 254 258 255 249 242 239 257 247 238 235 239 237 239 243 247 249 249 248 245 244 242 239 233 229 232 233 229 222 217 215 214 214 214 214 213 213 211 210 209 208 208 207 206 206 207 208 209 208 207 206 206 207 208 209 207 206 206 205 207 210 214 218 220 221 221 222
229 233 229 223 221 222 222 225 226 225 226 225 222 223 233 236 238 241 245 249 252 248 245 247 245 240 253 248 239 234 234 235 237 240 244 247 247 247 245 243 243 237 229 225 228 231 230 225 219 215 212 212 213 214 214 214 213 211 209 208 208 208 208 207 207 207 208 209 209 207 205 206 207 210 209 206 205 204 205 208 212 218 222 225 225 225
229 230 231 231 229 226 225 226 227 228 229 227 223 221 227 229 229 235 239 236 233 243 244 246 246 239 240 243 238 233 232 234 238 241 242 245 245 245 243 241 240 234 226 223 224 228 228 224 220 215 211 209 210 213 214 215 214 212 210 208 208 208 208 208 207 207 207 209 209 207 205 205 207 209 210 207 205 205 205 207 211 217 222 227 230 231
228 227 226 231 235 230 226 227 227 227 227 224 218 213 215 212 209 221 224 224 231 248 244 245 245 236 241 245 240 234 233 232 235 240 242 245 245 240 236 234 232 229 225 222 221 223 224 221 218 216 213 209 208 211 213 215 215 214 212 209 208 209 209 209 209 207 208 208 208 206 204 204 206 209 209 207 206 206 205 208 211 216 222 228 233 236
229 229 226 225 229 228 225 224 222 222 223 220 213 207 204 184 178 216 212 238 254 249 243 245 246 240 246 250 241 233 230 229 231 238 242 245 243 238 235 233 231 228 225 221 218 218 219 218 217 217 216 214 211 211 211 214 217 217 215 212 209 208 208 209 210 209 209 209 207 205 203 203 205 207 208 207 207 206 206 209 212 216 221 227 234 238
223 225 223 221 222 224 224 224 224 224 224 223 217 212 211 205 197 209 198 219 249 251 244 241 237 224 238 248 243 233 228 229 231 235 241 245 243 243 248 247 242 236 229 223 218 217 216 216 218 218 217 218 216 214 212 213 217 218 218 215 211 208 207 209 209 210 210 209 207 205 203 203 204 206 207 208 208 208 208 211 214 217 221 226 231 233
224 224 218 216 216 217 222 225 228 225 223 225 220 213 215 215 211 213 226 235 245 259 238 230 227 226 246 256 249 237 232 233 234 235 238 242 244 251 259 255 248 242 237 230 222 219 218 217 219 220 218 219 220 218 216 213 216 219 220 218 214 210 208 209 210 210 210 209 209 207 205 204 205 206 207 207 208 209 210 211 213 216 219 222 225 227
247 230 214 210 213 213 216 220 223 223 219 218 214 212 217 219 217 219 244 254 246 247 234 229 237 243 247 257 252 241 236 234 234 237 238 240 244 250 254 253 249 244 241 237 229 223 222 219 219 220 218 217 220 221 217 214 215 219 221 221 217 213 211 210 210 211 211 210 210 209 207 206 206 207 208 208 208 210 211 210 210 211 213 217 220 222
306 242 212 199 206 210 214 218 220 224 223 216 212 215 217 217 220 222 233 248 231 237 240 227 237 238 227 242 247 242 239 235 232 235 237 241 244 246 248 249 248 245 242 241 235 229 227 223 221 222 219 217 220 223 221 217 215 217 220 222 220 217 215 213 212 211 211 211 211 211 210 208 207 207 208 208 208 210 212 211 208 208 210 213 217 220
325 263 224 209 205 206 210 215 218 221 226 226 225 224 214 202 208 213 217 232 221 232 268 232 240 237 224 231 239 239 240 237 234 232 234 239 241 243 247 247 246 246 244 242 239 235 232 228 225 224 222 220 220 222 224 221 218 217 218 221 222 220 219 217 215 213 212 213 213 213 212 210 208 207 207 208 209 211 212 211 209 207 208 212 216 220
352 308 240 222 214 209 208 212 215 216 220 226 231 230 219 212 210 208 213 221 216 215 247 243 251 242 235 238 240 241 242 239 236 234 233 236 238 239 243 247 247 245 242 240 239 238 236 233 232 229 226 223 222 223 223 222 220 218 217 219 220 220 219 217 216 215 213 214 214 214 213 212 210 209 208 208 210 212 212 211 210 208 208 210 214 218
330 332 264 230 214 208 204 206 213 216 213 216 221 219 215 218 217 213 219 223 222 221 198 214 256 246 244 247 244 244 246 243 239 236 236 236 236 234 237 245 246 238 235 234 234 237 238 237 237 235 230 226 224 225 225 224 223 220 218 218 219 219 218 217 216 215 214 214 216 216 215 214 212 211 210 210 211 212 212 212 211 210 209 210 213 216
326 327 284 256 232 215 202 195 203 210 207 209 214 214 214 218 214 209 218 221 222 229 229 220 270 255 246 246 247 243 241 242 240 237 238 239 237 235 237 244 242 233 229 228 225 229 233 235 237 237 234 228 224 224 225 225 224 221 218 217 218 218 219 218 217 215 214 214 216 217 217 216 214 213 213 213 213 213 213 212 212 211 211 211 212 215
329 325 285 269 258 231 201 184 190 203 207 209 210 210 213 219 218 216 217 216 217 225 236 241 265 261 247 237 240 238 229 234 237 236 238 239 238 237 239 242 243 238 232 222 219 222 226 230 234 237 237 232 227 224 225 226 225 223 219 216 216 218 218 219 218 216 215 215 216 217 218 217 216 215 215 216 216 215 215 214 213 213 213 212 212 214
329 336 302 278 267 241 214 205 217 221 215 216 213 207 208 215 222 226 233 230 217 215 224 230 254 257 248 235 230 232 224 222 224 229 233 233 232 233 235 238 240 242 238 224 218 218 220 227 235 238 238 235 230 225 225 228 226 224 221 217 216 217 217 217 217 217 216 216 216 217 217 218 218 217 217 218 218 217 216 216 216 216 215 214 213 214
283 314 320 309 289 251 233 232 241 236 222 215 211 202 206 213 221 228 235 238 231 222 217 211 239 251 246 238 233 230 225 222 220 228 235 236 237 236 236 236 234 237 238 229 221 216 216 224 232 235 236 235 232 227 226 228 227 224 222 219 217 216 215 216 216 217 218 217 217 217 217 218 218 218 219 219 220 219 218 218 218 218 218 216 216 215
271 266 286 300 232 228 231 228 267 278 256 229 210 196 200 210 221 231 236 235 240 235 221 217 238 246 240 234 231 223 222 225 223 230 236 237 240 239 238 238 236 234 234 230 223 218 216 220 224 229 233 234 233 229 227 228 227 225 222 220 219 217 216 216 216 216 218 218 218 218 219 219 219 219 220 220 221 221 220 220 219 220 220 219 218 217
265 258 267 267 250 247 257 269 299 314 296 268 241 213 206 214 228 240 242 232 236 242 232 231 243 250 246 240 236 231 230 231 232 235 234 230 230 229 231 242 248 242 234 230 227 221 217 218 222 227 228 229 231 228 226 227 226 225 223 220 219 217 218 218 217 217 218 219 220 220 220 221 221 221 222 222 222 222 222 222 221 221 222 221 221 220
256 255 260 266 265 264 269 274 284 300 294 286 274 245 228 233 250 256 244 229 228 241 243 240 245 253 255 252 249 249 250 249 249 249 245 238 236 237 243 257 267 255 234 228 227 224 220 218 220 225 224 223 225 224 225 226 225 224 223 221 219 219 219 219 219 219 219 220 222 222 222 223 224 224 224 224 225 225 224 224 223 223 223 223 224 223
249 255 256 259 264 264 265 272 284 292 287 284 279 264 257 264 267 259 246 230 227 234 240 242 246 251 255 257 258 261 262 262 261 262 261 258 258 259 259 264 270 254 230 225 225 222 220 218 217 220 222 221 218 216 220 223 223 222 221 219 218 218 219 219 219 219 219 221 223 223 223 224 225 226 226 226 226 226 227 226 226 226 226 226 226 226
249 256 257 257 261 259 257 267 282 285 280 274 267 271 290 287 269 256 246 232 231 236 237 239 245 248 251 257 262 265 267 270 272 274 274 271 266 264 265 268 263 242 228 227 225 220 220 220 217 217 221 220 213 211 216 219 219 218 218 216 214 214 215 216 217 217 218 220 221 222 223 224 224 225 226 227 228 229 229 229 229 229 228 229 229 228
245 246 242 249 258 256 252 257 266 268 272 271 260 264 298 292 272 261 250 236 235 239 235 236 243 247 249 254 260 263 266 271 274 275 275 273 270 269 268 261 246 230 225 224 222 219 219 221 221 221 221 217 210 209 212 214 214 215 215 214 213 212 212 213 215 215 215 216 217 219 221 222 223 225 226 228 229 230 231 231 231 231 231 230 230 230
241 241 236 244 262 258 243 241 255 258 261 262 253 258 286 281 265 257 245 235 235 234 231 233 240 246 248 252 257 260 264 268 271 274 275 274 275 274 266 250 231 221 221 219 217 216 216 218 221 221 216 208 204 207 209 209 210 212 213 213 212 211 211 211 214 213 213 214 214 215 217 219 221 224 225 227 229 230 231 232 232 232 231 231 231 232
244 245 243 244 265 257 239 238 262 268 256 242 232 239 266 253 222 216 222 230 230 226 226 231 237 243 247 251 254 257 261 264 268 275 276 277 279 269 248 228 215 211 212 211 209 208 207 208 213 211 202 197 200 206 207 206 207 208 209 209 209 210 210 211 214 214 213 214 214 214 216 217 220 222 224 226 228 230 231 233 233 233 232 232 233 233
250 243 238 230 247 251 242 245 266 269 222 203 201 210 231 214 185 169 177 225 218 214 221 228 233 240 245 249 253 256 259 262 267 274 276 279 280 255 214 204 209 205 201 199 198 197 195 196 200 198 192 191 197 205 207 206 205 205 207 208 208 209 210 212 215 216 216 216 216 217 218 218 220 222 223 225 227 229 231 232 233 234 234 234 234 234
250 240 233 222 231 250 251 248 252 219 190 185 178 177 202 213 198 168 158 217 209 208 217 224 229 236 241 246 251 253 257 261 265 270 273 278 276 238 193 195 211 205 197 195 193 191 192 194 194 190 187 188 192 201 205 205 204 205 207 209 211 212 213 214 216 217 218 219 220 221 222 224 225 225 226 227 227 229 230 232 233 234 235 236 236 236
243 237 232 224 228 241 247 232 206 180 175 178 177 177 190 205 237 198 171 165 205 206 214 221 226 232 238 244 247 250 254 257 262 268 271 276 269 220 183 184 201 201 197 197 192 190 193 195 190 187 187 186 189 197 203 203 204 205 207 211 215 216 215 215 216 216 218 219 221 223 225 227 229 230 230 231 231 232 232 233 234 235 236 238 239 239
238 230 225 223 221 220 232 245 234 222 185 181 184 188 193 215 271 226 167 48 244 208 208 214 221 229 234 240 244 247 251 254 258 265 267 271 262 215 188 186 199 202 199 198 197 199 202 198 188 185 186 185 188 196 200 201 203 206 209 213 214 213 212 213 214 214 217 219 220 223 225 227 230 231 233 234 236 236 236 236 237 237 239 240 241 241
234 225 219 217 214 212 235 262 253 248 202 183 183 180 185 246 292 224 155 32 332 210 201 204 215 225 230 236 241 244 248 250 255 260 262 267 259 219 195 191 205 213 208 202 202 204 201 193 185 184 185 186 190 195 196 198 202 205 207 208 207 207 207 207 209 211 214 217 218 220 222 225 228 230 233 236 237 238 239 239 239 239 240 242 243 243
227 222 216 211 207 205 215 243 251 238 203 182 180 172 170 286 280 185 156 39 101 182 188 194 208 221 226 229 233 239 243 246 250 255 259 263 254 222 200 196 209 218 215 208 207 202 194 186 182 184 186 188 191 193 194 197 200 199 199 199 201 203 203 202 203 205 208 209 209 212 215 219 223 226 230 234 236 238 239 240 240 240 240 241 242 242
214 216 215 209 208 208 215 243 259 249 227 198 187 174 167 276 213 169 157 43 121 150 164 174 190 211 216 216 220 227 233 238 243 250 256 259 249 224 209 206 213 218 215 210 207 199 189 183 183 185 187 189 191 193 194 196 196 193 193 195 197 199 199 197 195 195 196 196 198 203 208 213 218 223 228 232 235 237 239 240 240 241 241 241 241 241
203 209 212 210 211 214 220 243 262 258 256 238 206 186 183 202 176 157 157 98 113 127 135 140 148 158 181 203 209 206 212 226 237 244 251 254 243 223 212 214 218 218 212 207 203 196 189 185 184 185 187 189 192 193 193 192 192 192 192 194 195 196 195 193 192 192 195 198 203 208 212 216 220 224 227 230 233 235 237 239 239 241 241 241 241 241
194 201 207 210 214 218 222 241 269 271 268 257 219 203 193 176 141 135 170 124 105 114 123 126 130 127 131 162 181 185 200 219 231 238 242 243 233 218 210 212 217 214 207 201 198 194 191 188 185 185 187 188 190 191 191 192 194 194 194 195 196 196 197 199 202 205 209 213 217 220 222 225 228 228 227 228 231 232 234 236 238 239 241 241 240 240
188 193 202 204 206 214 219 231 265 282 277 268 225 210 200 183 135 143 164 123 100 113 120 121 126 122 117 136 164 182 197 206 213 222 227 224 218 210 205 207 209 206 201 198 195 193 192 189 186 186 186 186 188 190 192 196 198 198 199 200 200 202 205 209 214 220 225 230 233 234 233 233 234 232 229 228 228 229 230 232 235 238 240 241 241 241
183 190 195 190 189 192 200 209 239 326 356 355 185 178 185 191 178 161 155 116 98 111 112 111 120 121 118 130 154 171 180 182 189 203 208 205 202 199 198 199 201 200 198 197 197 196 194 192 190 189 188 188 190 192 195 198 200 201 203 205 207 212 215 219 226 235 237 236 235 232 231 231 232 232 231 229 228 228 227 229 232 236 240 242 243 243
159 174 185 180 180 182 183 183 172 94 78 95 145 148 162 184 183 165 161 129 99 108 105 103 113 120 119 123 137 152 158 160 168 177 182 185 187 186 187 190 194 197 198 198 200 200 199 197 195 194 194 194 195 198 201 202 202 204 208 211 216 221 222 224 234 244 245 240 235 230 225 223 224 223 223 226 229 230 231 232 234 238 241 244 245 246
95 69 165 172 178 189 186 170 151 153 143 162 183 167 167 182 184 169 172 155 108 107 106 104 111 118 117 118 128 141 146 149 154 160 164 168 171 172 176 180 185 191 196 198 201 203 202 201 200 200 201 201 201 204 207 207 206 209 213 218 221 221 217 216 222 229 231 229 229 228 225 226 228 226 224 224 225 227 230 234 237 240 244 247 249 250
45 33 160 178 188 194 183 171 181 202 209 211 207 190 182 184 179 172 179 174 136 109 107 109 114 118 118 117 122 129 135 143 151 154 155 158 160 162 165 167 172 180 187 191 194 196 196 195 195 197 200 202 204 206 207 208 209 210 213 219 221 217 212 212 215 219 222 223 226 230 233 238 242 242 241 237 232 229 229 230 232 237 243 248 251 253
3 354 297 212 208 198 182 183 197 211 223 229 229 218 207 197 180 174 181 189 187 126 106 115 118 119 119 118 117 122 130 141 150 153 154 155 156 157 159 160 163 167 173 178 179 180 181 182 183 186 189 193 197 199 201 203 207 213 220 226 225 221 221 223 224 227 231 236 242 246 249 251 252 253 255 254 247 241 237 235 235 239 242 245 247 249
342 323 303 266 230 209 199 204 208 211 224 242 254 253 249 244 211 188 178 188 212 234 103 115 120 121 120 118 116 120 127 136 145 150 153 154 155 156 158 159 159 161 164 168 170 170 172 175 178 181 182 185 188 191 193 196 202 210 218 222 222 225 230 233 235 239 244 248 253 257 259 259 258 257 258 257 255 252 247 245 246 247 247 246 245 246
334 315 304 287 255 225 215 222 227 225 229 241 252 254 258 267 247 220 189 184 209 239 217 119 123 124 121 118 117 120 123 129 137 143 147 149 151 154 156 158 160 161 164 166 168 171 174 177 181 183 183 185 187 189 191 194 198 203 208 213 219 226 232 238 243 247 251 254 258 259 260 260 259 258 256 255 254 253 252 251 252 253 252 252 251 251
335 320 308 295 273 243 225 229 236 237 235 236 241 247 252 259 263 255 226 195 204 228 236 182 147 139 128 122 124 124 122 126 132 137 139 141 142 145 150 155 159 163 165 168 171 173 176 180 183 186 187 188 189 191 194 197 201 205 209 215 222 229 237 244 246 246 252 261 263 258 255 256 258 258 256 252 250 251 251 252 253 254 255 256 257 258
Height
3105 3105 3102 3100 3101 3106 3111 3114 3117 3121 3125 3127 3128 3130 3132 3133 3133 3135 3138 3140 3142 3142 3141 3142 3142 3143 3144 3145 3147 3149 3150 3151 3152 3152 3153 3154 3155 3157 3158 3160 3161 3163 3165 3168 3169 3170 3173 3175 3177 3179 3181 3183 3184 3186 3188 3190 3191 3194 3196 3198 3200 3202 3204 3206 3207 3209 3211 3213 3215 3217 3218 3221 3223 3224 3225 3226 3228 3229 3230 3230 3231 3232 3233 3234 3235 3236
3103 3099 3095 3097 3102 3108 3112 3115 3118 3120 3123 3125 3127 3128 3130 3131 3131 3134 3136 3138 3141 3140 3139 3141 3141 3141 3142 3143 3145 3147 3148 3148 3149 3150 3151 3152 3153 3155 3157 3158 3160 3162 3164 3166 3166 3168 3170 3172 3175 3177 3179 3180 3182 3184 3186 3188 3190 3192 3194 3196 3199 3201 3203 3204 3206 3208 3210 3212 3215 3217 3219 3221 3222 3223 3225 3226 3227 3228 3229 3230 3231 3232 3233 3234 3235 3236
3098 3092 3092 3099 3105 3109 3112 3115 3117 3119 3121 3123 3125 3126 3127 3128 3130 3132 3134 3137 3139 3139 3138 3139 3139 3138 3140 3141 3142 3143 3144 3146 3147 3148 3150 3151 3152 3153 3155 3156 3159 3161 3162 3163 3164 3166 3168 3170 3172 3174 3176 3178 3180 3183 3185 3187 3189 3191 3193 3195 3197 3199 3201 3203 3205 3207 3209 3212 3214 3216 3218 3220 3221 3223 3224 3225 3226 3227 3228 3229 3231 3232 3233 3234 3235 3236
3091 3088 3093 3100 3104 3107 3111 3113 3115 3118 3119 3121 3123 3124 3124 3126 3130 3131 3133 3136 3137 3137 3137 3137 3137 3136 3138 3139 3139 3140 3141 3144 3146 3147 3149 3150 3151 3152 3154 3155 3157 3159 3161 3162 3163 3164 3166 3168 3169 3171 3173 3176 3178 3181 3183 3185 3187 3189 3191 3193 3195 3197 3200 3202 3204 3206 3209 3211 3212 3214 3216 3218 3219 3221 3222 3223 3224 3225 3227 3228 3230 3231 3233 3234 3235 3236
3087 3089 3094 3099 3102 3106 3109 3111 3113 3115 3116 3118 3119 3120 3121 3125 3128 3130 3133 3134 3135 3136 3135 3136 3135 3133 3135 3136 3136 3137 3139 3141 3143 3145 3146 3147 3148 3151 3153 3154 3156 3158 3160 3161 3162 3163 3164 3165 3166 3169 3171 3174 3176 3178 3180 3183 3185 3187 3190 3192 3194 3197 3199 3201 3203 3205 3207 3209 3210 3212 3213 3215 3216 3218 3219 3220 3222 3224 3226 3228 3230 3231 3232 3233 3234 3235
3088 3092 3095 3098 3101 3103 3106 3108 3110 3112 3114 3116 3116 3118 3121 3124 3127 3129 3132 3133 3134 3134 3134 3136 3134 3130 3131 3133 3133 3134 3136 3137 3139 3141 3142 3144 3146 3148 3150 3152 3154 3156 3158 3160 3161 3162 3163 3164 3166 3168 3170 3172 3174 3176 3179 3182 3184 3187 3189 3191 3193 3195 3197 3200 3202 3203 3205 3207 3208 3210 3211 3213 3214 3216 3217 3219 3222 3224 3226 3228 3229 3231 3232 3233 3234 3235
3088 3093 3096 3097 3099 3101 3104 3106 3108 3111 3114 3113 3113 3117 3121 3123 3126 3128 3130 3132 3132 3131 3132 3134 3133 3129 3128 3129 3130 3132 3133 3134 3136 3137 3138 3141 3143 3145 3147 3149 3151 3153 3155 3158 3160 3161 3162 3163 3164 3166 3167 3169 3172 3175 3178 3180 3183 3185 3188 3190 3192 3194 3196 3198 3200 3201 3203 3204 3206 3208 3210 3212 3214 3216 3218 3221 3223 3225 3226 3228 3229 3230 3231 3232 3233 3234
3086 3091 3094 3095 3097 3099 3100 3101 3104 3109 3111 3110 3111 3117 3120 3122 3125 3127 3129 3130 3129 3129 3129 3130 3131 3129 3125 3124 3128 3130 3129 3130 3132 3133 3134 3137 3139 3141 3144 3147 3149 3151 3153 3155 3157 3159 3160 3161 3163 3164 3166 3168 3171 3174 3177 3178 3181 3183 3186 3188 3190 3192 3194 3196 3198 3199 3201 3203 3205 3207 3209 3211 3213 3215 3218 3220 3222 3223 3225 3226 3227 3228 3230 3231 3232 3233
3085 3087 3090 3093 3095 3095 3095 3097 3102 3107 3108 3108 3112 3117 3119 3122 3124 3126 3128 3128 3128 3129 3125 3124 3129 3128 3122 3121 3125 3127 3126 3126 3127 3129 3131 3134 3136 3138 3141 3143 3146 3149 3151 3153 3155 3157 3159 3160 3162 3164 3166 3168 3170 3173 3175 3177 3179 3182 3184 3187 3188 3190 3192 3194 3196 3198 3200 3202 3204 3206 3208 3210 3212 3214 3216 3218 3219 3221 3223 3224 3226 3227 3228 3230 3231 3232
3084 3085 3089 3093 3092 3090 3093 3097 3101 3104 3105 3107 3113 3116 3118 3121 3122 3125 3126 3126 3129 3126 3119 3120 3125 3126 3121 3118 3121 3123 3121 3122 3124 3126 3129 3131 3133 3136 3138 3140 3143 3146 3149 3151 3153 3155 3158 3160 3162 3164 3166 3168 3169 3171 3174 3176 3178 3180 3182 3184 3186 3188 3190 3192 3195 3197 3199 3201 3203 3204 3206 3209 3211 3213 3214 3215 3217 3219 3221 3223 3224 3226 3227 3229 3230 3231
3084 3086 3089 3089 3088 3090 3094 3097 3099 3102 3104 3108 3112 3115 3118 3120 3121 3123 3124 3125 3127 3118 3113 3117 3121 3124 3120 3113 3115 3117 3117 3119 3122 3124 3126 3128 3130 3133 3135 3138 3140 3143 3146 3149 3151 3153 3156 3159 3161 3163 3164 3166 3168 3170 3172 3174 3175 3177 3180 3182 3184 3186 3188 3190 3193 3195 3197 3199 3201 3203 3205 3207 3209 3211 3212 3214 3215 3217 3219 3221 3223 3225 3226 3228 3229 3230
3082 3084 3085 3086 3088 3092 3095 3097 3098 3101 3104 3107 3110 3114 3117 3118 3119 3121 3121 3123 3120 3110 3109 3116 3119 3122 3115 3107 3110 3114 3115 3119 3121 3122 3124 3126 3128 3130 3132 3135 3138 3141 3144 3147 3149 3151 3154 3156 3158 3160 3161 3164 3166 3167 3169 3171 3173 3175 3177 3179 3182 3184 3186 3188 3191 3193 3195 3197 3199 3202 3204 3206 3208 3209 3211 3213 3214 3216 3218 3220 3222 3223 3225 3226 3228 3229
3077 3079 3082 3085 3087 3090 3092 3095 3097 3099 3101 3104 3108 3111 3114 3115 3117 3118 3116 3115 3110 3106 3110 3115 3117 3115 3107 3103 3108 3111 3113 3116 3118 3120 3122 3124 3126 3128 3130 3132 3135 3138 3141 3144 3147 3149 3151 3153 3154 3156 3159 3161 3163 3164 3167 3169 3171 3173 3175 3177 3179 3182 3184 3186 3189 3191 3193 3195 3198 3201 3203 3204 3206 3208 3210 3212 3213 3215 3217 3219 3221 3222 3224 3225 3227 3229
3075 3077 3080 3083 3085 3086 3088 3090 3092 3095 3098 3100 3103 3106 3108 3110 3113 3114 3112 3110 3107 3106 3109 3113 3115 3109 3101 3101 3105 3107 3110 3113 3116 3118 3120 3122 3123 3125 3127 3130 3132 3135 3139 3142 3144 3147 3149 3150 3152 3154 3156 3159 3160 3163 3165 3167 3169 3171 3173 3175 3177 3179 3182 3184 3187 3189 3191 3194 3197 3199 3201 3203 3205 3206 3209 3211 3212 3214 3216 3218 3219 3221 3222 3224 3226 3228
3072 3072 3074 3078 3081 3083 3085 3086 3088 3092 3096 3097 3099 3103 3104 3104 3106 3108 3108 3107 3106 3106 3108 3110 3109 3101 3097 3099 3101 3105 3109 3111 3114 3117 3118 3119 3120 3122 3125 3127 3129 3132 3136 3139 3142 3144 3146 3148 3150 3152 3154 3156 3158 3161 3163 3165 3167 3169 3171 3173 3175 3177 3180 3182 3185 3187 3189 3192 3195 3197 3199 3201 3203 3205 3207 3209 3211 3213 3214 3216 3218 3220 3221 3223 3225 3226
3068 3067 3069 3073 3077 3080 3083 3085 3088 3091 3092 3093 3097 3100 3098 3098 3102 3104 3105 3104 3104 3105 3103 3102 3099 3095 3096 3097 3099 3104 3107 3109 3113 3115 3116 3117 3118 3121 3122 3123 3125 3128 3132 3136 3139 3141 3143 3146 3148 3150 3152 3154 3156 3159 3161 3163 3165 3166 3169 3171 3174 3176 3178 3180 3182 3185 3188 3191 3193 3195 3197 3199 3201 3203 3205 3207 3209 3211 3213 3215 3217 3219 3220 3222 3223 3224
3066 3064 3067 3071 3074 3078 3080 3081 3084 3086 3087 3090 3092 3092 3092 3096 3101 3103 3103 3102 3104 3102 3097 3095 3094 3094 3097 3096 3097 3102 3104 3107 3111 3112 3114 3115 3116 3119 3119 3120 3122 3124 3127 3132 3136 3139 3140 3143 3146 3148 3150 3152 3154 3156 3158 3161 3163 3165 3168 3170 3172 3175 3176 3178 3180 3183 3186 3189 3191 3193 3195 3197 3200 3202 3204 3206 3208 3210 3212 3213 3215 3217 3218 3220 3222 3223
3065 3063 3065 3069 3071 3074 3076 3078 3080 3083 3085 3087 3087 3088 3093 3098 3101 3102 3102 3101 3101 3099 3094 3092 3092 3092 3094 3093 3094 3098 3101 3103 3107 3110 3112 3113 3115 3117 3117 3119 3120 3121 3124 3127 3132 3137 3138 3140 3143 3145 3148 3150 3152 3154 3156 3159 3162 3164 3167 3169 3171 3173 3174 3176 3179 3181 3184 3187 3189 3191 3193 3195 3198 3200 3202 3205 3207 3208 3210 3212 3213 3215 3217 3218 3220 3221
3065 3063 3064 3066 3068 3069 3073 3076 3078 3080 3083 3084 3085 3087 3092 3094 3094 3096 3098 3096 3097 3097 3093 3091 3090 3089 3089 3089 3091 3095 3097 3101 3105 3108 3110 3111 3112 3114 3115 3117 3118 3120 3122 3123 3128 3132 3135 3138 3140 3143 3146 3148 3150 3152 3154 3158 3160 3163 3165 3167 3169 3171 3173 3175 3177 3180 3182 3184 3187 3189 3192 3194 3196 3198 3201 3203 3205 3206 3208 3210 3212 3214 3215 3217 3218 3220
3066 3065 3063 3063 3065 3067 3070 3073 3075 3077 3080 3083 3085 3086 3088 3088 3089 3090 3091 3090 3093 3094 3092 3090 3088 3084 3084 3087 3090 3092 3095 3099 3102 3105 3107 3109 3111 3112 3113 3115 3116 3118 3119 3121 3124 3127 3131 3135 3137 3140 3143 3146 3148 3150 3152 3155 3158 3160 3163 3165 3167 3170 3172 3174 3175 3177 3180 3182 3184 3187 3189 3192 3194 3196 3199 3201 3203 3204 3206 3209 3210 3212 3214 3215 3216 3218
3065 3066 3063 3061 3063 3066 3067 3070 3072 3075 3078 3080 3081 3082 3084 3086 3086 3088 3088 3087 3090 3091 3089 3089 3086 3081 3082 3086 3088 3091 3093 3096 3099 3102 3104 3107 3109 3111 3112 3113 3114 3116 3118 3120 3122 3124 3127 3131 3134 3137 3141 3144 3146 3148 3150 3153 3155 3158 3161 3163 3165 3167 3169 3171 3173 3175 3177 3180 3182 3185 3187 3190 3192 3194 3197 3199 3201 3202 3205 3207 3208 3210 3211 3213 3214 3216
3064 3065 3063 3061 3062 3063 3065 3067 3070 3072 3074 3075 3077 3079 3081 3083 3084 3085 3085 3084 3086 3086 3085 3086 3083 3077 3081 3086 3086 3089 3092 3093 3097 3099 3101 3104 3107 3109 3110 3111 3112 3114 3117 3119 3120 3122 3124 3127 3131 3134 3137 3141 3143 3145 3148 3150 3152 3155 3158 3160 3163 3165 3166 3168 3170 3173 3175 3178 3180 3182 3185 3188 3190 3192 3194 3196 3198 3200 3202 3204 3206 3208 3209 3211 3212 3214
3063 3063 3062 3060 3060 3061 3063 3065 3067 3068 3070 3071 3073 3076 3078 3080 3081 3081 3080 3080 3083 3083 3082 3085 3080 3072 3078 3085 3086 3088 3090 3091 3094 3097 3099 3102 3104 3106 3109 3110 3111 3112 3114 3117 3119 3120 3122 3124 3127 3130 3133 3137 3140 3143 3145 3147 3150 3152 3155 3158 3160 3162 3164 3166 3169 3171 3173 3176 3178 3181 3183 3186 3188 3190 3192 3194 3196 3198 3200 3202 3204 3205 3207 3209 3211 3212
3062 3062 3062 3060 3059 3060 3063 3065 3066 3066 3068 3069 3070 3072 3074 3076 3076 3076 3076 3078 3079 3078 3080 3084 3077 3067 3073 3082 3084 3087 3089 3090 3092 3094 3097 3099 3101 3104 3106 3108 3109 3110 3112 3114 3116 3119 3120 3122 3124 3126 3129 3133 3137 3140 3143 3144 3147 3150 3153 3156 3158 3160 3163 3165 3167 3169 3171 3173 3176 3178 3181 3183 3185 3187 3189 3191 3194 3196 3198 3200 3202 3203 3205 3207 3209 3210
3062 3062 3062 3061 3062 3062 3063 3063 3064 3064 3064 3065 3067 3069 3070 3072 3073 3073 3074 3076 3075 3073 3076 3078 3070 3063 3070 3079 3082 3085 3087 3088 3090 3092 3094 3096 3099 3101 3103 3106 3108 3109 3110 3112 3114 3116 3118 3119 3120 3122 3125 3129 3133 3137 3140 3142 3144 3147 3150 3153 3155 3158 3161 3163 3165 3167 3169 3171 3173 3176 3178 3180 3183 3185 3187 3189 3192 3194 3197 3198 3200 3202 3203 3205 3207 3208
3061 3061 3062 3063 3064 3063 3060 3061 3062 3062 3062 3062 3064 3066 3067 3069 3070 3070 3073 3074 3071 3069 3072 3070 3063 3063 3071 3076 3079 3083 3085 3086 3088 3090 3091 3093 3095 3097 3100 3102 3105 3106 3107 3109 3111 3113 3115 3117 3118 3120 3122 3125 3129 3133 3136 3139 3142 3145 3148 3151 3153 3156 3159 3161 3163 3165 3167 3169 3171 3173 3175 3178 3180 3182 3185 3187 3189 3192 3194 3196 3198 3200 3201 3203 3205 3206
3058 3059 3060 3061 3062 3061 3059 3059 3062 3063 3061 3060 3061 3062 3064 3066 3067 3068 3070 3068 3067 3068 3068 3065 3062 3064 3069 3073 3076 3080 3082 3083 3085 3086 3088 3089 3091 3093 3095 3097 3100 3102 3103 3106 3108 3110 3112 3114 3116 3118 3120 3122 3126 3130 3133 3136 3139 3143 3146 3148 3151 3154 3156 3159 3161 3163 3165 3167 3169 3171 3173 3175 3178 3180 3183 3185 3188 3190 3192 3194 3196 3198 3199 3201 3202 3204
3056 3057 3058 3059 3059 3059 3059 3059 3062 3063 3061 3060 3059 3059 3061 3063 3065 3065 3064 3064 3066 3067 3063 3062 3065 3063 3060 3066 3074 3077 3079 3082 3082 3084 3085 3086 3087 3089 3090 3092 3093 3095 3097 3101 3104 3106 3108 3111 3114 3116 3118 3120 3123 3127 3130 3133 3137 3140 3144 3146 3149 3152 3154 3156 3158 3161 3163 3165 3166 3168 3171 3174 3177 3179 3181 3184 3186 3188 3190 3192 3194 3195 3197 3199 3200 3202
3055 3055 3056 3057 3057 3058 3058 3058 3061 3062 3060 3059 3059 3058 3059 3060 3061 3060 3059 3061 3063 3061 3059 3063 3067 3061 3055 3060 3069 3073 3075 3078 3079 3081 3082 3083 3083 3084 3085 3085 3086 3087 3090 3094 3098 3102 3105 3108 3111 3113 3115 3117 3120 3124 3126 3130 3134 3138 3141 3144 3147 3149 3152 3154 3156 3159 3161 3162 3164 3167 3170 3172 3175 3177 3179 3181 3183 3185 3187 3189 3191 3193 3195 3196 3198 3200
3053 3053 3055 3055 3055 3055 3057 3058 3060 3060 3059 3058 3058 3059 3058 3057 3057 3056 3057 3059 3059 3058 3059 3064 3063 3058 3055 3059 3065 3068 3071 3073 3074 3076 3077 3078 3079 3079 3079 3079 3079 3080 3083 3087 3093 3097 3101 3105 3108 3111 3113 3115 3118 3120 3123 3127 3131 3135 3138 3141 3144 3147 3149 3152 3154 3156 3158 3160 3163 3165 3168 3170 3172 3174 3176 3178 3180 3182 3185 3187 3189 3190 3192 3194 3196 3197
3052 3053 3053 3054 3053 3053 3055 3058 3058 3058 3057 3056 3057 3058 3057 3055 3054 3054 3055 3057 3057 3056 3059 3062 3058 3054 3056 3060 3063 3064 3066 3068 3070 3071 3072 3073 3073 3073 3072 3072 3073 3074 3077 3081 3087 3092 3097 3101 3105 3107 3110 3112 3115 3118 3121 3124 3128 3132 3135 3138 3142 3145 3147 3150 3152 3154 3156 3158 3161 3164 3166 3168 3170 3172 3174 3176 3178 3180 3182 3184 3186 3188 3190 3191 3193 3194
3051 3051 3052 3053 3052 3051 3053 3056 3056 3056 3056 3056 3056 3057 3055 3053 3052 3052 3052 3053 3052 3054 3057 3058 3055 3052 3055 3059 3061 3061 3063 3065 3066 3067 3067 3068 3068 3068 3067 3067 3068 3071 3073 3077 3082 3087 3092 3097 3100 3104 3107 3110 3113 3116 3119 3122 3126 3129 3132 3136 3139 3143 3145 3148 3150 3152 3155 3157 3159 3162 3164 3166 3168 3170 3172 3174 3176 3178 3180 3182 3183 3185 3187 3188 3190 3192
3050 3050 3050 3052 3051 3049 3051 3054 3053 3054 3054 3053 3054 3054 3053 3052 3050 3049 3049 3049 3048 3051 3054 3054 3052 3053 3055 3057 3058 3059 3061 3062 3063 3063 3064 3064 3064 3064 3064 3065 3066 3069 3072 3075 3079 3084 3088 3093 3097 3101 3105 3107 3111 3114 3117 3120 3124 3127 3130 3133 3137 3140 3143 3146 3148 3151 3153 3155 3158 3160 3162 3164 3166 3168 3170 3172 3174 3176 3178 3179 3181 3182 3184 3186 3188 3189
3048 3048 3049 3051 3050 3048 3049 3052 3052 3052 3051 3050 3050 3051 3051 3050 3048 3047 3047 3047 3046 3048 3050 3050 3051 3053 3054 3054 3056 3058 3058 3059 3060 3061 3061 3062 3062 3062 3063 3064 3065 3067 3070 3074 3078 3082 3086 3091 3095 3099 3102 3105 3109 3112 3115 3118 3122 3125 3128 3131 3134 3138 3141 3144 3146 3149 3151 3154 3156 3158 3160 3162 3164 3166 3168 3170 3172 3173 3175 3176 3178 3180 3182 3183 3185 3186
3046 3047 3048 3049 3048 3047 3048 3050 3051 3049 3047 3046 3047 3048 3049 3049 3048 3046 3046 3046 3045 3045 3047 3047 3050 3052 3052 3052 3054 3055 3056 3057 3058 3059 3060 3060 3060 3060 3062 3063 3065 3067 3069 3072 3076 3081 3085 3089 3093 3097 3100 3103 3107 3110 3113 3116 3119 3122 3125 3129 3132 3136 3139 3141 3144 3147 3149 3152 3154 3156 3158 3160 3162 3164 3166 3167 3169 3170 3172 3173 3175 3177 3179 3180 3181 3183
3044 3046 3047 3047 3046 3046 3047 3047 3047 3044 3042 3044 3045 3046 3047 3048 3047 3045 3045 3044 3044 3044 3044 3046 3049 3050 3050 3050 3052 3053 3054 3056 3057 3057 3058 3059 3059 3060 3061 3063 3066 3068 3069 3072 3076 3080 3084 3088 3091 3095 3098 3101 3105 3108 3111 3114 3117 3120 3123 3127 3130 3133 3136 3139 3141 3144 3146 3149 3151 3153 3155 3157 3159 3161 3163 3165 3166 3167 3169 3171 3173 3175 3176 3177 3179 3180
3042 3043 3044 3044 3044 3044 3044 3044 3042 3041 3041 3041 3042 3044 3045 3046 3045 3045 3044 3043 3043 3042 3042 3044 3047 3047 3047 3048 3050 3051 3053 3054 3055 3056 3057 3057 3058 3059 3061 3063 3065 3067 3069 3072 3075 3079 3082 3086 3090 3093 3096 3100 3103 3106 3109 3112 3115 3118 3122 3125 3128 3130 3133 3136 3138 3141 3144 3146 3148 3150 3152 3154 3156 3158 3160 3161 3163 3164 3166 3168 3170 3172 3173 3174 3176 3177
3039 3041 3042 3042 3042 3042 3042 3043 3041 3040 3038 3038 3039 3042 3043 3043 3043 3043 3042 3042 3042 3041 3040 3042 3044 3044 3045 3046 3048 3050 3052 3053 3054 3054 3055 3056 3057 3059 3060 3062 3065 3067 3069 3071 3074 3077 3080 3083 3087 3091 3094 3098 3101 3105 3108 3110 3113 3116 3120 3123 3125 3128 3130 3133 3136 3138 3141 3143 3145 3148 3150 3151 3153 3155 3157 3158 3160 3161 3164 3166 3167 3169 3170 3171 3173 3175
3037 3038 3039 3040 3040 3040 3041 3042 3040 3037 3035 3036 3038 3040 3041 3042 3042 3042 3042 3041 3041 3040 3039 3040 3041 3042 3043 3045 3047 3048 3050 3051 3052 3053 3054 3055 3056 3058 3060 3061 3064 3067 3069 3071 3073 3075 3078 3081 3085 3089 3092 3096 3099 3103 3106 3108 3111 3115 3118 3121 3123 3125 3128 3130 3133 3136 3139 3141 3143 3145 3147 3149 3151 3153 3154 3155 3157 3159 3160 3162 3164 3166 3167 3168 3170 3172
3034 3035 3036 3037 3037 3038 3039 3040 3038 3035 3034 3034 3036 3038 3039 3041 3041 3041 3042 3041 3039 3039 3039 3039 3040 3041 3043 3044 3045 3047 3049 3049 3049 3051 3052 3053 3055 3057 3059 3060 3063 3066 3068 3070 3072 3074 3077 3080 3083 3087 3091 3095 3098 3101 3104 3107 3110 3113 3116 3119 3121 3123 3126 3129 3132 3134 3137 3139 3141 3143 3145 3146 3148 3150 3151 3153 3154 3156 3157 3158 3160 3162 3163 3164 3166 3168
3031 3032 3033 3033 3035 3036 3038 3038 3036 3034 3032 3033 3033 3034 3037 3039 3040 3041 3041 3040 3038 3038 3038 3038 3039 3041 3042 3043 3044 3045 3046 3046 3047 3049 3051 3052 3053 3055 3057 3059 3062 3064 3066 3069 3071 3073 3076 3079 3082 3086 3090 3094 3097 3100 3102 3105 3108 3111 3114 3117 3119 3122 3124 3127 3130 3132 3134 3136 3138 3140 3142 3144 3146 3147 3149 3150 3151 3152 3154 3155 3156 3157 3159 3161 3163 3164
3028 3030 3031 3032 3033 3035 3036 3036 3034 3033 3031 3031 3031 3032 3034 3037 3039 3040 3040 3039 3036 3035 3035 3035 3036 3038 3041 3043 3043 3043 3043 3043 3046 3048 3050 3051 3052 3054 3056 3058 3060 3062 3065 3067 3070 3072 3075 3078 3081 3085 3089 3092 3095 3098 3101 3104 3107 3110 3113 3115 3118 3120 3123 3125 3128 3130 3132 3134 3136 3138 3140 3141 3143 3144 3145 3146 3147 3149 3150 3151 3152 3154 3155 3157 3158 3160
3026 3028 3029 3030 3031 3033 3034 3034 3033 3032 3030 3030 3029 3030 3031 3034 3036 3037 3038 3037 3034 3032 3032 3032 3033 3035 3038 3041 3042 3041 3041 3043 3045 3047 3048 3050 3051 3052 3054 3056 3058 3060 3063 3066 3068 3071 3074 3077 3081 3084 3088 3091 3094 3097 3100 3103 3106 3108 3111 3114 3117 3120 3122 3124 3126 3128 3130 3132 3134 3136 3137 3139 3140 3141 3142 3143 3144 3145 3146 3148 3149 3150 3151 3153 3154 3156
3026 3027 3028 3028 3030 3031 3031 3032 3032 3031 3030 3029 3029 3029 3030 3033 3035 3035 3036 3036 3033 3030 3029 3028 3029 3031 3034 3038 3040 3041 3042 3043 3044 3046 3047 3049 3050 3051 3053 3055 3057 3059 3062 3064 3067 3070 3073 3076 3080 3083 3087 3090 3093 3096 3099 3102 3105 3107 3110 3113 3116 3118 3120 3122 3124 3126 3128 3129 3131 3133 3134 3136 3137 3138 3139 3140 3141 3142 3143 3145 3146 3147 3148 3149 3151 3152
3025 3026 3026 3026 3028 3028 3029 3029 3030 3030 3029 3029 3029 3029 3030 3033 3035 3034 3034 3035 3033 3030 3027 3025 3026 3028 3032 3035 3038 3040 3041 3042 3044 3045 3046 3048 3050 3051 3052 3053 3056 3058 3060 3063 3066 3069 3072 3075 3078 3082 3085 3089 3092 3095 3097 3100 3103 3106 3108 3111 3114 3116 3118 3121 3122 3124 3125 3127 3128 3130 3131 3133 3134 3136 3137 3139 3140 3141 3142 3143 3144 3145 3146 3147 3148 3149
3024 3024 3024 3025 3026 3027 3027 3028 3029 3029 3029 3028 3029 3029 3030 3032 3034 3034 3033 3033 3033 3031 3028 3025 3025 3027 3031 3034 3037 3038 3040 3042 3043 3045 3046 3048 3049 3050 3051 3053 3055 3057 3059 3062 3064 3067 3070 3073 3077 3080 3084 3087 3090 3093 3096 3099 3102 3104 3106 3109 3111 3113 3116 3118 3120 3122 3123 3125 3127 3129 3130 3131 3132 3134 3135 3136 3137 3139 3140 3141 3142 3144 3144 3145 3146 3147
3024 3024 3024 3024 3025 3025 3026 3027 3027 3027 3027 3027 3028 3029 3030 3031 3032 3033 3033 3032 3032 3031 3029 3027 3026 3026 3029 3033 3036 3037 3039 3040 3042 3044 3046 3047 3049 3050 3052 3054 3055 3057 3059 3061 3064 3066 3069 3072 3075 3079 3082 3085 3088 3091 3094 3097 3099 3102 3105 3107 3109 3111 3113 3115 3118 3120 3121 3123 3125 3127 3128 3130 3131 3132 3132 3134 3135 3136 3137 3138 3140 3141 3142 3144 3144 3145
3024 3023 3024 3024 3023 3024 3025 3026 3026 3027 3026 3026 3027 3028 3029 3029 3030 3031 3032 3033 3033 3031 3030 3029 3028 3027 3029 3032 3035 3036 3038 3039 3040 3042 3044 3046 3048 3050 3052 3054 3055 3057 3059 3061 3063 3066 3069 3071 3074 3077 3080 3083 3086 3089 3092 3095 3097 3100 3102 3105 3107 3109 3111 3113 3115 3117 3119 3120 3122 3124 3125 3127 3128 3128 3129 3131 3132 3133 3135 3136 3137 3139 3140 3141 3142 3143
3023 3023 3023 3023 3022 3023 3024 3024 3025 3026 3025 3025 3026 3027 3028 3028 3029 3030 3032 3033 3033 3033 3030 3029 3029 3029 3030 3032 3035 3037 3038 3039 3039 3041 3043 3044 3046 3049 3051 3053 3055 3057 3059 3061 3064 3066 3069 3072 3074 3077 3079 3082 3085 3087 3090 3093 3095 3098 3100 3103 3105 3107 3109 3111 3112 3114 3116 3117 3118 3120 3121 3122 3124 3125 3126 3127 3129 3130 3131 3133 3134 3136 3137 3138 3139 3140
3022 3022 3022 3021 3021 3022 3023 3023 3024 3024 3023 3023 3024 3026 3027 3028 3029 3030 3030 3031 3033 3033 3030 3028 3029 3030 3031 3033 3035 3037 3038 3038 3039 3040 3042 3043 3045 3047 3050 3052 3053 3055 3058 3061 3063 3066 3069 3072 3074 3076 3078 3081 3083 3086 3088 3091 3093 3096 3098 3101 3103 3105 3107 3108 3110 3111 3112 3114 3115 3115 3117 3118 3119 3121 3122 3124 3125 3127 3128 3129 3130 3131 3133 3134 3135 3136
3022 3021 3020 3020 3020 3020 3021 3022 3022 3021 3021 3022 3023 3024 3026 3027 3027 3028 3029 3030 3031 3032 3030 3029 3029 3030 3031 3033 3036 3037 3037 3037 3039 3040 3041 3042 3044 3045 3048 3050 3052 3054 3057 3059 3062 3065 3067 3070 3073 3075 3077 3079 3082 3084 3086 3089 3091 3094 3096 3099 3101 3103 3104 3106 3107 3108 3109 3110 3111 3111 3112 3114 3115 3117 3118 3120 3121 3122 3124 3125 3126 3127 3128 3129 3130 3131